Regional Weather Roundup
Issued by NWS

Home | Current Version | Previous Version | Text Only | Print | Product List | Glossary On
Versions: 1 2 3 4 5 6 7 8 9 10 11 12 13 14 15 16 17 18 19 20 21 22 23 24 25 26 27 28 29 30 31 32 33 34 35 36 37 38 39 40 41 42 43 44 45 46 47 48 49 50
000
ASUS44 KLIX 221614
RWRLA
LOUISIANA WEATHER ROUNDUP
NATIONAL WEATHER SERVICE NEW ORLEANS LA
1100 AM CDT TUE AUG 22 2017

NOTE: "FAIR" INDICATES FEW OR NO CLOUDS BELOW 12,000 FEET WITH NO
      SIGNIFICANT WEATHER AND/OR OBSTRUCTIONS TO VISIBILITY.
      SKY/WX - SKY CONDITION AND SIGNIFICANT WEATHER.
      TMP - AIR TEMPERATURE.    DP   - DEWPOINT TEMPERATURE.
      RH  - RELATIVE HUMIDITY.  PRES - PRESSURE.
      HX  - HEAT INDEX.         WCI  - WIND CHILL INDEX.

*  THESE STATIONS ARE NOT NWS OR FAA STATIONS AND ARE NOT UNDER
   NWS QUALITY CONTROL.

LAZ040-048-061>063-065-066-069-221700-
SOUTHEAST LOUISIANA

CITY           SKY/WX    TMP DP  RH WIND       PRES   REMARKS
N.O. INTL ARPT MOSUNNY   88  75  65 N8        30.09S HX  97
N.O. LAKEFRONT MOSUNNY   88  77  69 NE9       30.10S HX 100
N.O. DOWNTOWN* PTSUNNY   88  76  67 VRB6      30.10S HX  99
RESERVE*       FAIR      88  76  66 NE7       30.10R HX  99
SLIDELL        PTSUNNY   88  76  67 NE8       30.09S HX  99
BATON ROUGE    PTSUNNY   87  74  64 NE3       30.10R HX  95
BOOTHVILLE       N/A    N/A N/A N/A MISG      30.08F
BELLE CHASSE   PTSUNNY   87  75  67 NE7       30.09  HX  96
BOGALUSA*      FAIR      88  73  60 CALM      30.12S HX  96
GALLIANO*      MOSUNNY   89  74  61 E6        30.09R HX  97
NEW ROADS*     PTSUNNY   85  76  73 CALM      30.10S
GONZALES*      FAIR      87  75  67 CALM      30.09R HX  97
HAMMOND*       MOSUNNY   88  73  62 NE3       30.10S HX  96
HOUMA*         PTSUNNY   90  75  62 E5        30.09R HX 100
PORT FOURCHON* SUNNY     88  75  66 E9        30.08S HX  97

$$

LAZ041-044-053-054-221700-
SOUTHWEST LOUISIANA

CITY           SKY/WX    TMP DP  RH WIND       PRES   REMARKS
LAKE CHARLES   MOSUNNY   90  76  63 NE6       30.08S HX 101
LAFAYETTE      PTSUNNY   87  76  69 E3        30.10R HX  97
PATTERSON      MOSUNNY   88  78  72 VRB6      30.10R HX 101
SALT POINT       N/A     88  76  67 VRB5      30.07R HX  99
NEW IBERIA     SUNNY     89  75  63 NE5       30.10R HX  99
CHENAULT AIRPK PTSUNNY   88  77  70 VRB3      30.09S HX 100

$$

LAZ027-028-221700-
CENTRAL LOUISIANA

CITY           SKY/WX    TMP DP  RH WIND       PRES   REMARKS
FORT POLK      SUNNY     86  75  68 CALM      30.10S HX  95
ALEXANDRIA INT MOSUNNY   87  74  64 NW7       30.09R HX  95
ALEXANDRIA     MOSUNNY   89  76  65 CALM      30.10R HX 100

$$

LAZ001-002-221700-
NORTHWEST LOUISIANA

CITY           SKY/WX    TMP DP  RH WIND       PRES   REMARKS
SHREVEPORT     MOSUNNY   88  75  65 SW5       30.08S HX  97
BARKSDALE AFB  SUNNY     88  71  57 S5        30.08S
DTN SHREVEPORT SUNNY     90  74  59 VRB5      30.09S HX  99

$$

LAZ014-016-221700-
NORTHEAST LOUISIANA

CITY           SKY/WX    TMP DP  RH WIND       PRES   REMARKS
MONROE         MOSUNNY   87  76  69 VRB3      30.10S HX  97
TALLULAH       NOT AVBL

$$




USA.gov is the U.S. government's official web portal to all federal, state and local government web resources and services.